Retour au catalogue

STARLINK-5711

ActifCommunicationsVLEO
NORAD 55471·PAYLOAD·🇺🇸 United States

Lancé Feb 2, 2023 depuis Cape Canaveral Space Force Station

Loading…

Prochains Passages (prochaines 24 heures)

TLE

FraisSource: CelesTrak SupGP

Époque: Sep 15, 2026, 01:26 UTC

1 55471C 23015Y   26258.06020833  .00005185  00000+0  18783-3 0  2584
2 55471  43.0020 339.0258 0001712 260.3007 201.3287 15.27570122    18

Suivez STARLINK-5711 en temps réel avec AllMySat

Download on the App Store